Date String (YYYY-MM-DD hh:mm:ss) UTC,Instrument flags,absolute air pressure of the measurement (hPa),sample flow rate (lpm),inlet stack bypass flow (lpm),air temperature of the measurement (°C),ambient temperature measured by the external sensor (°C),aerosol sample conditioner tube jacket temperature (°C),OPC LED temperature (°C),internal box temperature (°C),relative humidity of the measurement (%),span deviation,mass concentration of particles derived from Lorenz-Mie calculation of OPC scattering (μg/m³),mass concentration of particles derived from Lorenz-Mie calculation of OPC scattering (μg/m³),mass concentration of particles derived from Lorenz-Mie calculation of OPC scattering (μg/m³)
DateTimeUTC,F1_M11,P_M11,Q1_M11,Q2_M11,T1_M11,T2_M11,T3_M11,T4_M11,T5_M11,U1_M11,ZSPAN_M11,X0_M11,X2_M11,X1_M11
2023-08-26 10:00:00,SystemResetWarning,0839.2,5.00,000.00,030.7,027.3,000.0,038.8,030.7,34.3,-002.7,0009.05,0005.87,0005.50
2023-08-26 10:01:00,SystemResetWarning,0839.2,5.02,000.00,030.7,027.4,000.0,038.8,030.8,34.3,-002.1,0009.11,0005.86,0005.48
2023-08-26 10:02:00,SystemResetWarning,0839.2,5.00,000.00,030.7,027.5,000.0,038.8,030.8,34.4,-002.1,0009.03,0005.81,0005.45
2023-08-26 10:03:00,SystemResetWarning,0839.2,4.99,000.00,030.6,027.5,000.0,038.8,030.8,34.3,-002.4,0009.04,0005.81,0005.43
2023-08-26 10:04:00,SystemResetWarning,0839.2,4.99,000.00,030.6,027.6,000.0,038.9,030.8,34.3,-002.2,0008.94,0005.79,0005.43
2023-08-26 10:05:00,SystemResetWarning,0839.2,5.00,000.00,030.6,027.6,000.0,038.9,030.9,34.2,-001.9,0009.13,0005.80,0005.41
2023-08-26 10:06:00,SystemResetWarning,0839.2,5.02,000.00,030.6,027.7,000.0,038.9,030.9,34.3,-000.9,0009.79,0005.83,0005.40
2023-08-26 10:07:00,SystemResetWarning,0839.2,5.00,000.00,030.6,027.7,000.0,038.9,030.9,34.4,-000.2,0009.82,0005.83,0005.41
2023-08-26 10:08:00,SystemResetWarning,0839.2,5.00,000.00,030.5,027.8,000.0,038.9,030.9,34.4,-000.6,0009.81,0005.82,0005.41
2023-08-26 10:09:00,SystemResetWarning,0839.2,4.99,000.00,030.5,027.8,000.0,038.9,030.9,34.5,-000.5,0009.91,0005.85,0005.43
2023-08-26 10:10:00,SystemResetWarning,0839.2,4.99,000.00,030.5,027.8,000.0,038.9,031.0,34.5,-000.4,0010.02,0005.90,0005.47
2023-08-26 10:11:00,SystemResetWarning,0839.2,4.98,000.00,030.5,026.8,000.0,038.8,030.9,34.6,-000.4,0010.04,0005.99,0005.52
2023-08-26 10:12:00,SystemResetWarning,0839.1,5.01,000.00,030.4,025.2,000.0,038.6,030.6,34.8,-000.4,0010.11,0006.09,0005.60
2023-08-26 10:13:00,SystemResetWarning,0839.1,4.99,000.00,030.3,024.7,000.0,038.5,030.5,35.1,-000.1,0010.35,0006.23,0005.69
2023-08-26 10:14:00,SystemResetWarning,0839.0,5.02,000.00,030.3,024.9,000.0,038.5,030.3,35.2,0000.2,0010.79,0006.27,0005.75
2023-08-26 10:15:00,SystemResetWarning,0839.0,5.01,000.00,030.4,025.2,000.0,038.5,030.4,35.0,-000.1,0011.10,0006.32,0005.79
2023-08-26 10:16:00,SystemResetWarning,0839.1,4.96,000.00,030.6,025.6,000.0,038.5,030.6,34.4,-000.6,0010.88,0006.33,0005.82
2023-08-26 10:17:00,SystemResetWarning,0839.1,5.02,000.00,030.7,026.0,000.0,038.5,030.6,34.2,-000.9,0010.24,0006.31,0005.85
2023-08-26 10:18:00,SystemResetWarning,0839.2,5.00,000.00,030.8,026.3,000.0,038.5,030.6,34.1,-001.6,0010.28,0006.34,0005.87
2023-08-26 10:19:00,SystemResetWarning,0839.2,4.99,000.00,030.8,026.6,000.0,038.6,030.7,34.1,-001.4,0010.30,0006.35,0005.89
2023-08-26 10:20:00,SystemResetWarning,0839.2,5.00,000.00,030.8,026.8,000.0,038.6,030.7,33.9,-001.4,0010.29,0006.37,0005.91
2023-08-26 10:21:00,SystemResetWarning,0839.2,5.00,000.00,030.8,027.0,000.0,038.7,030.7,33.8,-001.2,0010.24,0006.41,0005.94
2023-08-26 10:22:00,SystemResetWarning,0839.2,5.01,000.00,030.8,027.1,000.0,038.7,030.8,33.7,-001.4,0010.19,0006.37,0005.95
2023-08-26 10:23:00,SystemResetWarning,0839.2,5.00,000.00,030.8,027.3,000.0,038.8,030.8,33.6,-001.6,0009.99,0006.34,0005.95
2023-08-26 10:24:00,SystemResetWarning,0839.2,4.99,000.00,030.7,027.4,000.0,038.8,030.8,33.7,-001.8,0009.91,0006.29,0005.91
2023-08-26 10:25:00,SystemResetWarning,0839.2,5.00,000.00,030.7,027.5,000.0,038.8,030.8,33.8,-001.7,0009.72,0006.26,0005.86
2023-08-26 10:26:00,SystemResetWarning,0839.2,5.00,000.00,030.7,027.5,000.0,038.8,030.9,34.3,-001.5,0009.24,0006.22,0005.82
2023-08-26 10:27:00,SystemResetWarning,0839.2,5.00,000.00,030.7,027.6,000.0,038.9,030.9,34.7,-001.3,0009.27,0006.23,0005.80
2023-08-26 10:28:00,SystemResetWarning,0839.1,5.00,000.00,030.6,027.7,000.0,038.9,030.9,34.8,-001.5,0009.25,0006.20,0005.75
2023-08-26 10:29:00,SystemResetWarning,0839.1,5.00,000.00,030.6,027.7,000.0,038.9,030.9,34.9,-001.1,0009.32,0006.19,0005.72
2023-08-26 10:30:00,SystemResetWarning,0839.1,5.00,000.00,030.6,027.8,000.0,038.9,031.0,35.1,-000.9,0009.55,0006.17,0005.68
2023-08-26 10:31:00,SystemResetWarning,0839.1,5.01,000.00,030.8,027.8,000.0,038.9,031.1,34.8,-000.6,0009.77,0006.13,0005.63
2023-08-26 10:32:00,SystemResetWarning,0839.1,4.99,000.00,030.9,027.8,000.0,038.9,031.1,34.5,-000.7,0009.67,0006.05,0005.57
2023-08-26 10:33:00,SystemResetWarning,0839.1,5.02,000.00,031.0,027.9,000.0,038.9,031.1,34.5,-000.5,0009.42,0005.99,0005.53
2023-08-26 10:34:00,SystemResetWarning,0839.1,4.99,000.00,031.0,027.6,000.0,038.9,031.1,34.5,0000.1,0009.32,0005.95,0005.50
2023-08-26 10:35:00,SystemResetWarning,0839.1,5.00,000.00,031.0,025.9,000.0,038.8,030.9,34.4,0000.1,0009.25,0005.93,0005.49
2023-08-26 10:36:00,SystemResetWarning,0839.1,5.00,000.00,030.9,024.9,000.0,038.7,030.7,34.5,0000.2,0009.28,0005.95,0005.51
2023-08-26 10:37:00,SystemResetWarning,0839.0,5.01,000.00,030.8,024.8,000.0,038.7,030.4,34.8,0000.4,0009.23,0005.95,0005.53
2023-08-26 10:38:00,SystemResetWarning,0838.9,4.99,000.00,030.6,025.1,000.0,038.7,030.3,35.3,0000.5,0009.19,0005.94,0005.55
2023-08-26 10:39:00,SystemResetWarning,0838.9,5.01,000.00,030.7,025.5,000.0,038.7,030.5,35.2,0000.6,0009.26,0005.98,0005.58
2023-08-26 10:40:00,SystemResetWarning,0839.1,4.99,000.00,030.9,025.9,000.0,038.8,030.7,34.7,0000.6,0009.22,0005.99,0005.60
2023-08-26 10:41:00,SystemResetWarning,0839.1,4.99,000.00,031.1,026.2,000.0,038.8,030.8,34.4,0000.5,0009.02,0005.99,0005.62
2023-08-26 10:42:00,SystemResetWarning,0839.1,5.02,000.00,031.1,026.5,000.0,038.8,030.8,34.3,0000.4,0008.77,0006.05,0005.66
2023-08-26 10:43:00,SystemResetWarning,0839.1,4.99,000.00,031.2,026.7,000.0,038.9,030.8,34.2,0000.5,0008.88,0006.12,0005.70
2023-08-26 10:44:00,SystemResetWarning,0839.1,4.99,000.00,031.2,026.9,000.0,038.9,030.8,34.2,0000.5,0009.01,0006.19,0005.73
2023-08-26 10:45:00,SystemResetWarning,0839.1,5.01,000.00,031.1,027.1,000.0,039.0,030.8,34.2,0000.0,0008.99,0006.20,0005.75
2023-08-26 10:46:00,SystemResetWarning,0839.1,5.00,000.00,031.1,027.3,000.0,039.0,030.9,34.2,0000.2,0009.01,0006.21,0005.76
2023-08-26 10:47:00,SystemResetWarning,0839.1,5.00,000.00,031.1,027.4,000.0,039.0,030.9,34.3,-000.2,0008.94,0006.19,0005.76
2023-08-26 10:48:00,SystemResetWarning,0839.1,4.99,000.00,031.1,027.5,000.0,039.1,030.9,34.4,-000.2,0009.00,0006.21,0005.75
2023-08-26 10:49:00,SystemResetWarning,0839.1,4.99,000.00,031.1,027.6,000.0,039.1,031.0,34.5,-000.2,0008.94,0006.17,0005.72
2023-08-26 10:50:00,SystemResetWarning,0839.1,4.99,000.00,031.0,027.6,000.0,039.1,031.0,34.6,0000.1,0009.04,0006.16,0005.70
2023-08-26 10:51:00,SystemResetWarning,0839.1,5.00,000.00,031.0,027.7,000.0,039.1,031.0,34.7,-000.1,0009.00,0006.14,0005.71
2023-08-26 10:52:00,SystemResetWarning,0839.2,5.01,000.00,031.0,027.7,000.0,039.2,031.0,34.7,-000.0,0008.96,0006.13,0005.69
2023-08-26 10:53:00,SystemResetWarning,0839.2,5.00,000.00,030.9,027.8,000.0,039.2,031.0,34.8,-000.4,0008.96,0006.11,0005.69
2023-08-26 10:54:00,SystemResetWarning,0839.2,5.00,000.00,030.9,027.8,000.0,039.2,031.0,34.9,-000.8,0008.83,0006.05,0005.69
2023-08-26 10:55:00,SystemResetWarning,0839.2,5.00,000.00,030.9,027.9,000.0,039.2,031.1,34.9,-000.7,0008.78,0006.02,0005.68
2023-08-26 10:56:00,SystemResetWarning,0839.1,4.98,000.00,030.8,027.9,000.0,039.2,031.1,35.0,-000.3,0008.81,0006.04,0005.70
2023-08-26 10:57:00,SystemResetWarning,0839.2,5.04,000.00,030.9,026.6,000.0,039.0,031.0,34.9,-000.1,0008.89,0006.08,0005.71
2023-08-26 10:58:00,SystemResetWarning,0839.2,4.97,000.00,031.0,025.1,000.0,038.8,030.8,34.7,-000.2,0008.94,0006.11,0005.73
2023-08-26 10:59:00,SystemResetWarning,0839.2,5.02,000.00,030.9,024.7,000.0,038.8,030.6,34.7,-000.1,0008.88,0006.10,0005.75
